SCP
0 0 0 0 0 0 0 0 0 0 0 0 0 0 0 0 0 0 0 0 0 0 0 0 0 0 0 0 0 0 0 0 0 0 0 0 0 0 0 0 0 0 0
0 0 0 0 0 0 0 0 0 0 0 0 0 0 0 0 0 0 0 0 0 0 0 0 0 0 0 0 0 0 0 0 0 0 0 0 0 0 0 0 0 0 0
0 0 0 0 0 0 0 0 0 0 0 0 0 0 0 0 0 0 0 0 0 0 0 0 0 0 0 0 0 0 0 0 0 0 0 0 0 0 0 0 0 0 0
0 0 0 0 0 0 0 0 0 0 0 0 0 0 0 0 0 0 0 0 0 0 0 0 0 0 0 0 0 0 0 0 0 0 0 0 0 0 0 0 0 0 0
0 0 0 0 0 0 0 0 0 0 0 0 0 0 0 0 0 0 0 0 0 0 0 0 0 0 0 0 0 0 0 0 0 0 0 0 0 0 0 0 0 0 0
0 0 0 0 0 0 0 0 0 0 0 0 0 0 0 0 0 0 0 0 0 0 0 0 0 0 0 0 0 0 0 0 0 0 0 0 0 0 0 0 0 0 0
0 0 0 0 0 0 0 0 0 0 0 0 0 0 0 0 0 0 0 0 0 0 0 0 0 0 0 0 0 0 0 0 0 0 0 0 0 0 0 0 0 0 0
0 0 0 0 0 0 0 0 0 0 0 0 0 0 0 0 0 0 0 0 0 0 0 0 0 0 0 0 0 0 0 0 0 0 0 0 0 0 0 0 0 0 0
0 0 0 0 0 0 0 0 0 0 0 0 0 0 0 0 0 0 0 0 0 0 0 0 0 0 0 0 0 0 0 0 0 0 0 0 0 0 0 0 0 0 0
0 0 0 0 0 0 0 0 0 0 0 0 0 0 0 0 0 0 0 0 0 0 0 0 0 0 0 0 0 0 0 0 0 0 0 0 0 0 0 0 0 0 0
0 0 0 0 0 0 0 0 0 0 0 0 0 0 0 0 0 0 0 0 0 0 0 0 0 0 0 0 0 0 0 0 0 0 0 0 0 0 0 0 0 0 0
0 0 0 0 0 0 0 0 0 0 0 0 0 0 0 0 0 0 0 0 0 0 0 0 0 0 0 0 0 0 0 0 0 0 0 0 0 0 0 0 0 0 0
0 0 0 0 0 0 0 0 0 0 0 0 0 0 0 0 0 0 0 0 0 0 0 0 0 0 0 0 0 0 0 0 0 0 0 0 0 0 0 0 0 0 0
0 0 0 0 0 0 0 0 0 0 0 0 0 0 0 0 0 0 0 0 0 0 0 0 0 0 0 0 0 0 0 0 0 0 0 0 0 0 0 0 0 0 0
0 0 0 0 0 0 0 0 0 0 0 0 0 0 0 0 0 0 0 0 0 0 0 0 0 0 0 0 0 0 0 0 0 0 0 0 0 0 0 0 0 0 0
0 0 0 0 0 0 0 0 0 0 0 0 0 0 0 0 0 0 0 0 0 0 0 0 0 0 0 0 0 0 0 0 0 0 0 0 0 0 0 0 0 0 0
0 0 0 0 0 0 0 0 0 0 0 0 0 0 0 0 0 0 0 0 0 0 0 0 0 0 0 0 0 0 0 0 0 0 0 0 0 0 0 0 0 0 0
0 0 0 0 0 0 0 0 0 0 0 0 0 0 0 0 0 0 0 0 0 0 0 0 0 0 0 0 0 0 0 0 0 0 0 0 0 0 0 0 0 0 0
0 0 0 0 0 0 0 0 0 0 0 0 0 0 0 0 0 0 0 0 0 0 0 0 0 0 0 0 0 0 0 0 0 0 0 0 0 0 0 0 0 0 0
0 0 0 0 0 0 0 0 0 0 0 0 0 0 0 0 0 0 0 0 0 0 0 0 0 0 0 0 0 0 0 0 0 0 0 0 0 0 0 0 0 0 0
0 0 0 0 0 0 0 0 0 0 0 0 0 0 0 0 0 0 0 0 0 0 0 0 0 0 0 0 0 0 0 0 0 0 0 0 0 0 0 0 0 0 0
0 0 0 0 0 0 0 0 0 0 0 0 0 0 0 0 0 0 0 0 0 0 0 0 0 0 0 0 0 0 0 0 0 0 0 0 0 0 0 0 0 0 0
0 0 0 0 0 0 0 0 0 0 0 0 0 0 0 0 0 0 0 0 0 0 0 0 0 0 0 0 0 0 0 0 0 0 0 0 0 0 0 0 0 0 0
0 0 0 0 0 0 0 0 0 0 0 0 0 0 0 0 0 0 0 0 0 0 0 0 0 0 0 0 0 0 0 0 0 0 0 0 0 0 0 0 0 0 0
0 0 0 0 0 0 0 0 0 0 0 0 0 0 0 0 0 0 0 0 0 0 0 0 0 0 0 0 0 0 0 0 0 0 0 0 0 0 0 0 0 0 0
0 0 0 0 0 0 0 0 0 0 0 0 0 0 0 0 0 0 0 0 0 0 0 0 0 0 0 0 0 0 0 0 0 0 0 0 0 0 0 0 0 0 0
Wind_Speed
9 10 11 10 10 9 9 8 7 7 6 7 6 6 6 5 5 5 5 4 4 4 4 4 4 4 3 3 3 3 4 5 11 10 6 7 9 10 10 8 9 10 11
9 10 11 10 10 10 9 7 7 7 6 6 6 6 6 5 5 5 5 4 4 4 4 4 4 4 4 4 4 5 5 5 8 15 11 9 10 10 11 11 10 10 9
9 11 11 10 9 9 8 7 7 7 6 6 6 6 5 5 4 4 4 3 3 3 3 3 4 4 4 4 5 5 5 6 6 10 13 9 8 8 10 10 10 8 9
9 10 10 9 9 8 8 7 6 6 6 6 5 5 5 4 4 3 3 2 2 2 3 3 3 4 4 5 5 5 5 6 7 8 10 10 9 8 8 10 12 9 9
9 10 9 8 8 8 7 7 6 6 6 5 5 5 4 3 3 2 2 2 2 2 3 3 4 5 7 7 6 6 6 6 7 8 9 10 9 10 10 9 13 13 11
9 9 8 8 8 7 7 6 6 6 5 5 5 4 3 2 4 5 3 1 1 2 3 3 4 4 7 11 12 11 10 8 8 8 9 11 12 11 10 11 12 13 11
9 8 8 8 8 7 7 6 6 5 5 5 4 3 3 2 4 4 4 1 1 2 3 4 4 4 6 6 9 11 10 12 13 10 10 11 12 12 12 13 11 12 12
9 8 8 8 8 7 6 6 5 4 4 3 3 2 2 2 4 4 4 1 1 2 3 4 5 6 6 8 7 7 7 7 9 7 7 9 9 9 9 9 11 11 10
10 9 8 8 8 7 6 5 4 3 3 2 2 2 1 2 4 4 4 1 1 3 3 4 5 5 10 13 8 7 8 7 9 12 13 12 14 15 12 8 8 9 10
10 9 7 7 7 7 6 5 3 3 3 2 2 1 1 1 4 4 4 0 1 3 3 4 5 8 12 13 6 6 8 7 7 8 9 10 8 9 12 7 7 8 8
8 8 7 6 6 6 5 4 4 3 3 2 1 1 1 2 4 5 5 1 2 3 3 3 4 11 12 12 9 5 8 8 5 6 6 6 5 5 6 6 5 6 7
9 8 7 6 5 5 5 4 3 3 3 2 1 0 1 2 3 5 7 6 5 3 3 3 5 11 12 11 8 8 11 8 4 4 4 5 6 6 7 7 7 6 5
10 8 7 6 5 4 5 5 4 3 3 2 1 1 1 2 3 6 7 8 8 4 3 7 9 10 9 6 8 9 6 4 3 4 4 5 6 6 7 6 6 6 5
10 9 7 6 5 4 3 3 3 3 3 3 2 2 2 2 3 3 3 3 5 5 4 4 7 7 5 4 4 5 4 3 3 3 4 5 5 5 5 6 6 7 5
10 8 7 6 6 5 3 3 3 3 4 4 3 3 2 3 4 6 5 3 3 3 3 1 2 2 3 3 3 3 3 3 3 3 4 5 5 5 5 5 5 5 4
10 8 6 6 5 4 4 2 3 3 4 5 5 4 3 5 7 8 8 8 8 7 2 1 1 1 2 2 3 3 2 3 3 4 4 4 5 5 5 5 5 4 5
9 9 7 6 6 5 5 4 3 1 2 2 3 4 4 6 6 6 6 6 5 4 1 1 1 2 2 2 2 2 2 3 3 3 3 4 4 4 4 5 5 5 5
7 7 7 6 6 5 5 4 3 3 2 2 3 4 4 5 5 5 4 2 2 2 0 1 2 2 2 2 2 2 2 2 2 2 3 3 3 3 4 4 4 5 5
7 6 5 5 5 5 4 4 4 4 3 3 2 3 3 4 4 3 2 0 1 2 2 2 3 3 3 3 2 2 2 2 2 2 2 3 3 3 3 3 4 5 4
5 7 7 6 5 5 5 5 5 4 4 3 3 3 2 1 1 1 1 2 2 3 3 3 3 3 3 3 3 2 2 2 3 2 2 2 2 2 3 4 4 4 4
6 7 8 6 6 6 6 6 5 5 4 4 4 5 6 3 3 3 3 3 4 4 4 4 3 3 3 3 3 3 4 3 3 3 3 3 2 2 3 3 3 3 3
6 6 6 6 6 6 5 5 5 5 5 5 4 4 7 3 3 3 4 4 4 4 4 4 4 4 4 4 4 4 4 4 4 4 3 3 3 3 3 3 3 3 3
6 7 6 5 5 6 5 5 5 5 5 5 4 4 4 4 4 4 4 4 4 4 4 4 4 4 4 4 4 5 5 5 5 4 4 4 4 3 3 3 4 4 3
7 7 7 7 6 6 6 6 6 6 6 5 5 5 5 5 5 5 5 4 4 4 4 4 5 7 8 6 5 5 5 6 5 5 6 6 5 4 4 4 4 4 4
7 7 7 7 7 7 6 6 6 6 6 6 5 5 5 5 5 5 5 4 5 5 6 6 5 6 8 9 7 6 8 10 8 6 6 6 6 6 5 5 5 4 4
7 7 6 6 6 6 6 6 6 6 6 6 5 5 5 5 5 5 5 4 5 5 6 5 7 8 8 7 9 10 11 12 11 11 8 6 7 7 6 5 6 5 5
Wind_Direction
116 114 111 109 109 108 107 107 108 102 100 98 97 91 83 75 70 73 68 55 51 36 23 15 359 347 341 337 330 322 311 303 294 301 308 318 319 317 316 309 310 308 310
114 111 110 110 108 107 106 105 104 102 97 98 97 92 86 79 74 75 68 54 47 32 15 6 352 346 340 335 329 319 312 307 302 305 311 317 315 314 313 313 313 310 305
116 115 112 111 111 112 111 107 104 104 99 92 92 93 89 83 78 72 70 59 45 26 7 355 342 343 336 328 321 314 310 308 303 302 306 310 310 313 314 311 307 303 306
120 119 118 119 119 117 113 109 105 104 100 95 92 90 89 89 84 75 69 58 35 12 354 342 334 333 324 320 315 308 305 304 301 300 303 309 311 313 315 321 321 319 316
125 123 122 119 116 113 111 108 103 98 97 97 94 86 84 92 83 76 69 48 19 355 342 332 323 320 315 317 313 308 306 303 305 305 307 310 315 324 325 322 318 318 314
130 128 127 124 119 117 116 113 108 103 100 96 91 90 82 70 56 53 51 40 0 342 333 325 317 313 319 322 319 316 314 310 308 304 306 309 314 318 319 318 318 321 319
133 133 133 131 127 125 123 117 113 110 105 99 92 86 77 50 44 38 33 27 338 328 323 321 321 318 315 304 306 311 308 304 304 301 302 307 311 316 315 315 317 315 308
141 141 140 136 132 129 124 119 115 108 105 105 94 80 69 30 24 21 19 28 338 321 315 312 312 313 313 315 305 301 297 295 303 304 295 299 303 309 309 309 308 305 297
152 152 150 145 140 137 131 126 119 115 109 105 102 77 49 353 3 6 12 357 323 317 311 304 301 298 312 322 318 311 310 305 316 317 315 316 322 329 333 326 322 321 316
160 152 145 142 142 140 135 127 116 121 117 103 85 48 354 317 341 353 359 349 308 305 303 300 301 316 321 324 319 311 310 313 319 321 322 325 326 328 340 337 324 320 317
142 136 134 134 134 131 124 119 125 123 114 102 87 12 339 317 329 340 341 322 293 300 302 303 305 322 323 324 325 313 312 321 318 316 316 320 325 329 333 331 325 317 311
138 137 135 132 130 129 127 125 129 134 132 130 119 20 320 315 321 327 331 325 318 293 291 295 302 318 324 329 332 331 335 339 327 323 325 327 330 330 328 324 318 313 302
141 140 138 133 129 136 141 145 145 151 151 154 160 202 276 289 308 324 325 324 321 311 292 303 312 322 331 337 344 348 351 346 337 331 325 321 321 318 319 320 318 318 309
146 146 147 146 145 145 151 157 161 168 168 172 186 217 259 279 281 284 282 298 311 310 306 311 318 328 341 349 350 355 355 347 338 324 317 314 318 324 329 332 330 333 331
147 149 153 156 156 158 165 179 182 194 189 185 197 208 230 264 274 299 304 291 288 278 300 314 336 339 336 339 340 340 344 349 346 337 329 325 328 332 332 336 334 338 340
154 160 164 162 162 164 164 179 227 218 226 231 231 232 236 263 292 305 312 310 311 310 317 291 288 292 296 310 317 320 329 340 338 333 330 329 329 332 331 334 338 341 336
165 166 165 165 168 172 174 174 179 224 261 261 262 274 276 285 295 304 311 315 330 346 337 272 271 274 276 284 289 292 302 319 324 327 329 329 329 329 331 336 339 339 335
162 164 164 169 172 174 179 181 177 178 194 247 284 290 293 298 301 305 314 332 343 13 247 249 259 264 264 265 270 276 290 307 315 320 321 323 326 325 330 334 337 335 329
167 169 168 165 168 171 172 175 183 192 201 214 251 287 301 308 314 321 13 113 227 245 245 248 250 255 257 256 257 261 267 276 288 296 299 307 315 320 319 322 324 327 329
178 175 166 167 170 174 179 184 190 195 202 209 220 230 242 213 237 267 248 222 229 239 242 247 248 246 248 249 250 253 262 265 273 274 280 288 295 297 300 307 313 318 315
178 177 174 173 184 186 187 193 193 193 202 213 222 229 230 212 219 225 228 227 228 233 236 240 242 242 240 239 239 244 249 254 254 256 263 269 276 282 284 288 294 297 302
176 179 183 190 190 192 193 194 195 198 205 215 223 241 247 226 219 229 231 233 231 229 227 229 236 234 228 226 227 233 242 248 247 248 254 257 258 264 273 279 287 292 296
181 184 189 194 193 194 195 198 202 205 208 213 215 220 228 226 229 233 236 238 235 234 228 223 234 241 234 226 221 221 232 240 237 234 243 252 253 252 253 263 272 280 282
190 193 194 195 195 199 202 204 206 209 211 213 215 219 224 226 230 237 239 239 239 238 232 227 231 240 243 239 230 227 233 239 235 230 230 239 247 248 246 251 257 260 268
193 199 200 200 200 202 204 207 210 212 213 215 216 221 226 229 233 238 239 239 242 243 243 236 234 239 243 242 240 237 243 250 245 228 222 227 238 240 241 246 249 253 255
197 202 205 204 206 205 206 210 212 213 217 219 220 222 226 231 236 239 238 238 240 244 247 242 237 239 242 244 247 250 249 250 244 234 220 220 227 234 231 238 243 245 249